SCP
0 0 0 0 0 0 0 0 0 0 0 0 0 0 0 0 0 0 0 0 0 0 0 0 0 0 0 0 0 0 0 0 0 0 0 0 0 0 0 0 0 0 0 0 0 0 0 0 0 0 0 0 0 0
0 0 0 0 0 0 0 0 0 0 0 0 0 0 0 0 0 0 0 0 0 0 0 0 0 0 0 0 0 0 0 0 0 0 0 0 0 0 0 0 0 0 0 0 0 0 0 0 0 0 0 0 0 0
0 0 0 0 0 0 0 0 0 0 0 0 0 0 0 0 0 0 0 0 0 0 0 0 0 0 0 0 0 0 0 0 0 0 0 0 0 0 0 0 0 0 0 0 0 0 0 0 0 0 0 0 0 0
0 0 0 0 0 0 0 0 0 0 0 0 0 0 0 0 0 0 0 0 0 0 0 0 0 0 0 0 0 0 0 0 0 0 0 0 0 0 0 0 0 0 0 0 0 0 0 0 0 0 0 0 0 0
0 0 0 0 0 0 0 0 0 0 0 0 0 0 0 0 0 0 0 0 0 0 0 0 0 0 0 0 0 0 0 0 0 0 0 0 0 0 0 0 0 0 0 0 0 0 0 0 0 0 0 0 0 0
0 0 0 0 0 0 0 0 0 0 0 0 0 0 0 0 0 0 0 0 0 0 0 0 0 0 0 0 0 0 0 0 0 0 0 0 0 0 0 0 0 0 0 0 0 0 0 0 0 0 0 0 0 0
0 0 0 0 0 0 0 0 0 0 0 0 0 0 0 0 0 0 0 0 0 0 0 0 0 0 0 0 0 0 0 0 0 0 0 0 0 0 0 0 0 0 0 0 0 0 0 0 0 0 0 0 0 0
0 0 0 0 0 0 0 0 0 0 0 0 0 0 0 0 0 0 0 0 0 0 0 0 0 0 0 0 0 0 0 0 0 0 0 0 0 0 0 0 0 0 0 0 0 0 0 0 0 0 0 0 0 0
0 0 0 0 0 0 0 0 0 0 0 0 0 0 0 0 0 0 0 0 0 0 0 0 0 0 0 0 0 0 0 0 0 0 0 0 0 0 0 0 0 0 0 0 0 0 0 0 0 0 0 0 0 0
0 0 0 0 0 0 0 0 0 0 0 0 0 0 0 0 0 0 0 0 0 0 0 0 0 0 0 0 0 0 0 0 0 0 0 0 0 0 0 0 0 0 0 0 0 0 0 0 0 0 0 0 0 0
0 0 0 0 0 0 0 0 0 0 0 0 0 0 0 0 0 0 0 0 0 0 0 0 0 0 0 0 0 0 0 0 0 0 0 0 0 0 0 0 0 0 0 0 0 0 0 0 0 0 0 0 0 0
0 0 0 0 0 0 0 0 0 0 0 0 0 0 0 0 0 0 0 0 0 0 0 0 0 0 0 0 0 0 0 0 0 0 0 0 0 0 0 0 0 0 0 0 0 0 0 0 0 0 0 0 0 0
0 0 0 0 0 0 0 0 0 0 0 0 0 0 0 0 0 0 0 0 0 0 0 0 0 0 0 0 0 0 0 0 0 0 0 0 0 0 0 0 0 0 0 0 0 0 0 0 0 0 0 0 0 0
0 0 0 0 0 0 0 0 0 0 0 0 0 0 0 0 0 0 0 0 0 0 0 0 0 0 0 0 0 0 0 0 0 0 0 0 0 0 0 0 0 0 0 0 0 0 0 0 0 0 0 0 0 0
0 0 0 0 0 0 0 0 0 0 0 0 0 0 0 0 0 0 0 0 0 0 0 0 0 0 0 0 0 0 0 0 0 0 0 0 0 0 0 0 0 0 0 0 0 0 0 0 0 0 0 0 0 0
0 0 0 0 0 0 0 0 0 0 0 0 0 0 0 0 0 0 0 0 0 0 0 0 0 0 0 0 0 0 0 0 0 0 0 0 0 0 0 0 0 0 0 0 0 0 0 0 0 0 0 0 0 0
0 0 0 0 0 0 0 0 0 0 0 0 0 0 0 0 0 0 0 0 0 0 0 0 0 0 0 0 0 0 0 0 0 0 0 0 0 0 0 0 0 0 0 0 0 0 0 0 0 0 0 0 0 0
0 0 0 0 0 0 0 0 0 0 0 0 0 0 0 0 0 0 0 0 0 0 0 0 0 0 0 0 0 0 0 0 0 0 0 0 0 0 0 0 0 0 0 0 0 0 0 0 0 0 0 0 0 0
0 0 0 0 0 0 0 0 0 0 0 0 0 0 0 0 0 0 0 0 0 0 0 0 0 0 0 0 0 0 0 0 0 0 0 0 0 0 0 0 0 0 0 0 0 0 0 0 0 0 0 0 0 0
0 0 0 0 0 0 0 0 0 0 0 0 0 0 0 0 0 0 0 0 0 0 -0 -0 0 0 0 0 0 0 0 0 0 0 0 0 0 0 0 0 0 0 0 0 0 0 0 0 0 0 0 0 0 0
0 0 0 0 0 0 0 0 0 0 0 0 0 0 0 0 0 0 0 0 0 0 0 0 0 0 0 0 0 0 0 0 0 0 0 0 0 0 0 0 0 0 0 0 0 0 0 0 0 0 0 0 0 0
0 0 0 0 0 0 0 0 0 0 0 0 0 0 0 0 0 0 0 0 0 0 0 0 0 0 0 0 0 0 0 0 0 0 0 0 0 0 0 0 0 0 0 0 0 0 0 0 0 0 0 0 0 0
0 0 0 0 0 0 0 0 0 0 0 0 0 0 0 0 0 0 0 0 0 0 0 0 0 0 0 0 0 0 0 0 0 0 0 0 0 0 0 0 0 0 0 0 0 0 0 0 0 0 0 0 0 0
0 0 0 0 0 0 0 -0 0 0 0 0 0 -0 0 0 0 0 0 0 0 0 0 0 0 0 0 0 0 0 0 0 0 0 0 0 0 0 0 0 0 0 0 0 0 0 0 0 0 0 0 0 0 0
0 0 0 0 0 0 0 0 0 0 -0 -0 -0 -0 0 0 0 0 0 0 0 0 0 0 0 0 0 0 0 0 0 0 0 0 0 0 0 0 0 0 0 0 0 0 0 0 0 0 0 0 0 0 0 0
0 0 0 0 0 0 0 0 -0 -0 -0 -0 0 0 0 0 0 0 -0 0 0 0 0 0 0 0 0 0 0 0 0 0 0 0 0 0 0 0 0 0 0 0 0 0 0 0 0 0 0 0 0 0 0 0
0 0 0 0 0 0 -0 -0 -0 -0 -0 -0 -0 -0 -0 -0 -0 0 0 0 -0 -0 0 0 0 0 0 0 -0 -0 -0 0 0 0 0 0 0 0 0 0 0 0 0 0 0 0 0 0 0 0 0 0 0 0
0 0 0 0 0 0 0 0 -0 0 -0 -0 -0 -0 0 -0 -0 -0 -0 0 0 0 0 0 0 0 0 0 0 0 0 0 0 0 0 0 0 0 0 0 0 0 0 0 0 0 0 0 0 0 0 0 0 0
0 0 0 -0 0 -0 0 -0 0 0 0 -0 -0 -0 0 0 0 0 0 0 0 0 0 0 0 0 0 0 0 0 0 0 0 0 0 0 0 0 0 0 0 0 0 0 0 0 0 0 0 0 0 0 0 0
-0 0 -0 -0 0 -0 -0 -0 -0 -0 0 0 -0 -0 -0 -0 0 0 0 0 0 0 0 0 0 0 0 0 0 0 0 0 0 0 0 0 0 0 0 0 0 0 0 0 0 0 0 0 0 0 0 0 0 0
0 0 0 -0 -0 0 0 0 0 0 0 0 0 0 0 -0 -0 0 0 0 0 0 0 0 0 0 0 0 0 0 0 0 0 0 0 0 0 0 0 0 0 0 0 0 0 0 0 0 0 0 0 0 0 0
0 0 0 0 0 0 0 0 0 0 0 0 0 0 0 0 0 0 0 0 0 0 0 0 0 0 0 0 0 0 0 0 0 0 0 0 0 0 0 0 0 0 0 0 0 0 0 0 0 0 0 0 0 0
0 0 0 0 0 0 0 0 0 0 0 0 0 0 0 0 0 0 0 0 0 0 0 0 0 0 0 0 0 0 0 0 0 0 0 0 0 0 0 0 0 0 0 0 0 0 0 0 0 0 0 0 0 0
Wind_Speed_500mb
18 22 20 20 21 22 22 20 22 21 16 13 10 9 10 11 12 19 18 15 12 9 15 18 14 15 16 8 14 16 11 7 4 6 5 5 6 12 8 8 15 16 17 8 6 10 28 14 5 20 17 6 12 10
17 16 22 22 17 19 23 22 20 17 19 14 11 10 10 11 11 8 24 13 24 14 13 27 25 28 29 14 26 8 8 8 8 7 2 6 5 4 11 7 4 6 14 15 27 18 6 23 2 12 4 2 7 5
20 17 16 18 14 14 18 20 18 17 18 14 12 13 11 10 9 11 17 22 28 34 22 13 23 26 20 17 20 11 10 10 10 11 6 4 6 4 7 7 8 6 4 7 7 4 7 19 13 8 6 1 1 4
15 14 16 14 19 18 19 20 14 13 17 14 13 13 12 11 12 14 28 28 18 11 8 7 17 22 24 14 15 19 34 34 23 14 6 4 5 4 5 5 4 5 11 9 8 7 3 15 5 14 9 10 13 14
15 13 11 13 14 16 17 19 18 16 18 13 12 12 11 9 10 11 18 25 17 7 8 8 19 17 21 21 22 32 22 20 17 8 5 4 5 6 3 4 3 11 9 8 7 8 10 3 22 8 6 9 10 9
17 18 16 15 15 15 20 18 13 19 21 16 14 14 10 10 12 12 8 12 10 16 11 5 6 9 20 27 34 34 34 27 14 10 2 7 6 4 4 4 6 17 15 13 9 15 10 9 8 7 5 6 8 10
19 19 20 18 16 14 13 8 10 13 13 28 19 16 14 13 11 9 5 10 21 12 8 5 4 6 18 20 14 18 19 16 11 10 5 7 5 6 4 4 4 13 17 10 7 7 6 13 8 19 14 15 16 15
18 16 14 12 7 3 1 9 8 8 17 22 25 18 16 19 18 13 16 16 23 11 10 6 2 3 8 8 7 7 7 7 11 7 7 5 8 5 2 16 8 6 15 13 11 13 11 7 9 19 27 28 28 27
11 11 9 5 2 3 6 6 8 13 18 22 26 24 26 20 10 14 14 19 11 10 6 7 8 5 12 8 7 6 6 6 5 4 1 7 2 4 12 15 14 12 3 6 11 14 10 7 2 1 5 10 13 16
9 5 5 5 2 6 8 9 7 17 21 27 35 13 8 25 23 28 11 4 5 3 5 4 8 5 10 6 4 6 6 4 4 5 7 5 6 13 7 9 0 7 12 11 4 2 1 4 7 11 13 18 20 21
6 3 2 3 7 12 10 13 9 21 26 31 12 9 42 39 12 6 6 6 4 6 3 5 6 7 5 6 5 4 4 2 5 7 8 4 5 4 6 19 17 12 12 13 18 11 8 11 13 13 14 16 19 20
4 5 3 4 10 12 11 10 9 30 26 30 19 50 28 9 8 9 1 4 6 7 1 5 7 9 9 6 7 3 5 4 6 6 5 5 5 7 8 5 8 16 20 23 25 26 24 23 23 22 23 24 24 24
4 1 1 4 11 12 14 7 21 35 50 55 12 9 7 4 11 9 4 5 1 7 13 10 4 7 8 7 10 5 6 5 10 3 6 7 2 8 11 6 4 4 10 17 22 25 26 26 29 29 28 31 32 30
4 2 0 4 9 12 11 16 45 53 44 11 6 6 7 1 4 8 9 9 5 6 24 25 11 7 7 6 4 7 2 5 4 2 11 2 10 10 10 7 5 3 4 4 5 6 8 9 12 14 18 21 23 25
9 7 6 2 6 9 13 1 60 48 11 8 7 5 3 5 13 9 12 10 7 27 23 17 12 8 5 7 5 7 7 5 11 10 2 10 12 7 4 5 5 6 8 9 11 10 9 8 10 13 15 17 20 22
13 10 15 5 9 4 3 30 55 33 10 10 16 9 5 6 7 11 17 15 17 20 17 10 5 8 2 6 6 9 11 10 6 4 10 10 8 7 6 5 5 5 7 8 9 10 10 11 13 16 19 22 24 25
12 11 13 6 9 12 12 43 27 16 12 10 8 22 16 20 12 8 10 11 14 5 3 7 8 11 2 6 5 1 8 4 6 6 13 13 10 8 6 5 4 4 5 7 8 8 8 10 13 16 19 22 24 27
14 9 8 5 9 27 33 17 15 16 18 22 10 13 23 20 11 15 13 12 7 5 2 5 11 7 7 7 3 1 3 4 5 8 11 11 12 12 11 8 7 7 8 10 13 15 18 20 22 23 24 26 28 29
6 2 8 6 15 12 14 19 16 14 16 11 14 18 19 18 30 22 12 12 15 14 8 6 10 4 2 5 4 5 7 9 8 14 12 7 13 16 17 15 14 16 17 19 21 22 23 24 26 28 31 32 32 32
16 17 9 9 7 11 13 16 15 17 11 9 13 14 11 11 13 21 22 14 12 9 21 10 3 5 7 8 9 11 11 13 17 15 6 10 16 16 14 14 15 16 17 18 21 23 25 27 28 29 30 30 30 30
25 21 12 9 22 26 18 13 17 14 11 12 10 10 9 12 14 19 21 23 19 15 8 9 11 12 12 8 7 10 11 12 13 11 15 16 18 18 15 16 15 15 16 19 23 25 26 27 28 27 26 25 26 25
30 17 19 25 19 16 21 25 14 10 8 9 9 12 14 10 15 20 19 27 13 11 10 16 17 13 9 8 10 12 14 13 13 14 17 21 21 14 13 15 15 16 17 19 22 25 25 24 23 22 21 20 19 18
21 17 19 23 13 18 10 15 8 13 8 7 5 8 9 9 13 15 13 11 9 18 21 19 17 15 10 8 10 11 12 13 13 14 16 18 18 18 16 15 15 17 17 21 22 22 21 19 16 15 13 12 12 12
21 17 22 19 28 9 10 16 13 11 10 9 7 6 7 12 15 12 6 5 14 19 22 21 18 12 10 10 11 11 13 14 14 14 14 15 15 14 14 14 14 15 16 15 15 15 15 15 15 14 14 14 15 16
14 30 19 16 19 14 14 10 13 10 7 7 5 7 7 13 5 6 2 7 23 23 22 20 20 18 14 10 12 12 14 15 15 14 15 15 16 16 17 18 18 18 19 17 16 17 19 19 18 17 18 19 20 21
19 29 17 19 15 11 6 7 9 7 6 8 5 13 9 3 8 3 5 22 25 30 29 26 22 16 13 18 18 15 16 19 19 19 17 19 22 21 22 23 21 20 21 21 21 21 21 22 22 22 22 23 24 25
13 11 17 23 12 7 10 8 6 10 9 8 6 11 6 8 5 6 17 20 29 28 24 22 22 22 23 20 19 20 22 23 24 23 22 23 23 22 22 23 21 20 21 23 22 23 23 24 24 26 26 26 27 30
14 23 10 23 12 15 5 7 7 5 5 9 6 8 6 2 2 12 13 23 23 21 21 19 19 20 20 20 19 18 16 17 18 19 18 17 17 18 19 20 22 23 24 24 25 26 26 27 28 30 31 32 30 33
13 31 13 13 6 11 13 5 2 4 12 4 3 1 1 3 7 13 18 20 21 22 21 20 21 22 22 22 22 20 20 20 21 19 19 19 19 19 21 22 23 25 26 26 28 29 30 32 34 36 36 38 37 37
17 33 12 9 7 6 10 12 11 11 11 9 2 2 2 4 10 15 21 24 25 26 25 26 26 25 24 23 20 20 24 22 21 23 25 23 24 24 26 28 28 30 32 32 33 34 37 40 40 43 47 48 47 48
21 21 9 11 6 10 16 19 12 12 9 9 8 4 5 7 4 16 21 29 35 30 28 24 23 28 28 29 32 30 24 26 27 29 32 33 33 33 35 37 38 40 41 42 43 44 45 47 48 50 52 53 52 53
23 18 12 8 4 14 11 21 11 8 9 8 9 12 9 7 8 13 28 28 38 32 25 23 26 27 28 28 33 34 32 31 32 36 38 40 39 38 39 40 41 43 46 47 47 48 49 52 54 53 55 55 55 55
12 14 10 11 8 8 15 24 7 10 3 5 5 11 10 6 5 17 31 31 45 36 26 29 32 35 36 37 41 41 39 43 47 48 49 51 53 53 54 54 52 52 55 57 57 57 57 58 61 62 62 64 65 65
Wind_Direction_500mb
161 166 149 138 134 133 136 152 175 186 186 183 155 144 141 138 113 166 162 82 130 95 42 68 51 88 101 120 152 163 103 21 33 100 131 174 128 204 106 158 165 158 159 173 121 231 259 170 98 170 225 77 221 195
118 162 166 149 137 140 131 131 133 144 159 179 175 153 142 133 134 145 176 111 107 110 101 96 73 81 88 78 124 111 83 102 115 104 195 99 118 141 148 195 291 159 177 173 187 209 222 187 235 213 354 251 172 161
63 97 153 170 180 172 157 138 135 137 143 143 142 158 155 135 125 159 153 159 102 107 95 84 75 87 97 79 111 109 83 118 102 114 134 125 145 129 156 232 103 276 197 183 115 262 168 200 222 200 231 303 239 255
122 88 89 131 158 145 167 177 150 147 158 145 142 130 152 135 121 139 147 149 124 109 102 55 100 89 98 90 109 82 111 102 98 101 106 118 124 220 188 142 158 184 136 162 278 297 45 65 337 255 267 342 330 293
153 119 118 97 124 139 174 177 180 172 165 170 162 142 132 152 128 125 142 157 137 87 117 93 97 91 90 108 115 134 136 118 93 66 44 93 110 120 348 74 260 189 171 177 213 157 105 48 38 13 272 294 337 332
138 148 140 124 121 110 118 126 161 204 204 178 174 158 154 127 123 119 103 175 127 110 103 88 87 78 117 110 117 128 138 126 106 106 108 109 135 62 100 205 275 197 182 143 161 169 128 121 79 19 335 308 326 351
84 110 126 122 120 131 154 157 169 191 189 194 176 178 169 144 137 62 70 147 154 90 86 91 19 84 128 129 95 93 105 113 108 105 79 110 103 112 82 176 275 184 186 171 143 171 205 206 201 194 208 237 258 263
96 90 82 75 86 81 160 206 199 180 194 188 181 170 172 154 135 94 63 140 146 81 69 98 15 81 120 69 73 82 79 81 47 88 111 114 112 79 235 252 243 121 164 187 200 219 239 273 266 270 270 266 258 258
114 104 97 119 145 281 260 201 189 194 185 175 168 168 154 154 120 121 116 132 135 78 98 90 131 181 133 87 89 73 70 51 27 72 13 131 345 204 221 232 222 206 234 284 261 244 234 231 265 355 328 350 340 339
136 124 35 53 60 301 283 240 235 196 167 168 165 141 109 142 146 138 115 72 70 52 84 100 126 120 139 109 87 101 56 112 156 247 141 93 241 250 193 185 187 277 279 284 242 207 202 286 19 2 356 350 342 336
155 181 76 27 34 351 308 224 247 176 168 164 171 97 131 124 117 67 69 79 9 11 24 91 117 123 126 108 133 93 144 75 101 256 134 298 268 230 284 232 232 237 244 249 247 267 284 275 288 295 296 309 318 318
207 235 287 317 337 331 322 290 200 181 165 164 129 128 115 97 85 89 348 359 58 214 147 120 102 103 111 113 93 76 120 71 193 171 117 268 249 14 46 136 218 240 238 239 246 259 272 281 287 294 294 297 301 305
95 99 323 311 325 308 311 281 186 178 143 140 118 88 114 25 56 109 144 312 73 199 179 154 74 95 97 93 74 86 89 200 123 124 221 222 125 40 51 114 150 218 231 237 245 257 268 280 286 290 292 294 294 293
109 118 220 330 297 312 315 213 173 145 133 91 95 80 122 350 220 179 178 181 190 180 140 117 76 90 62 64 121 93 289 91 86 185 235 277 8 18 42 59 178 244 261 259 262 266 288 304 309 309 304 301 298 293
149 150 176 246 332 299 303 148 154 151 94 100 111 125 142 129 63 84 98 108 60 134 138 97 68 78 54 78 63 94 48 229 202 223 202 7 5 360 31 69 91 111 113 108 105 96 78 53 30 13 357 343 331 321
126 113 98 42 352 351 280 134 124 117 71 58 50 74 34 84 23 43 64 81 109 116 107 85 97 58 316 131 89 210 138 217 245 4 339 341 343 2 9 41 62 72 75 77 71 66 54 35 17 5 354 348 340 332
107 80 66 35 356 37 119 125 110 70 65 55 36 52 58 65 73 38 52 68 121 105 109 101 78 202 86 54 342 290 202 251 312 358 355 348 347 359 356 36 46 37 25 25 14 1 355 353 347 341 340 339 337 334
85 85 41 11 66 89 104 56 72 70 62 45 66 22 50 56 62 52 54 77 112 70 77 172 125 75 150 159 229 314 352 333 350 7 7 4 345 342 340 345 340 338 339 333 323 325 329 330 328 328 326 325 326 328
152 124 69 53 56 46 53 39 45 88 65 68 61 50 56 61 53 47 48 71 87 85 105 40 66 69 80 17 3 344 345 351 315 291 307 347 5 345 342 337 324 322 326 326 323 319 317 317 320 323 324 323 324 323
157 127 97 68 37 72 70 42 47 75 78 63 50 42 53 48 43 45 50 64 75 51 43 38 58 349 328 337 320 313 316 323 335 326 294 299 324 336 332 327 316 311 314 316 313 313 312 312 311 312 312 313 315 314
122 117 71 88 58 67 76 53 59 60 73 71 55 46 59 46 36 32 23 22 56 41 50 42 5 353 347 348 340 333 327 318 313 304 299 298 307 313 315 310 310 314 318 319 314 311 309 309 308 309 309 310 312 311
108 79 48 46 62 67 64 39 71 78 71 70 48 34 40 30 19 11 7 47 59 32 10 352 349 348 344 331 330 325 327 322 315 308 305 307 313 310 309 312 311 312 314 312 310 308 307 304 304 306 307 308 308 305
84 52 50 36 71 49 39 30 62 33 66 19 50 48 23 26 13 2 68 55 59 7 1 355 351 345 341 340 333 328 328 325 318 311 311 308 305 306 309 316 326 327 322 317 312 307 301 298 299 305 310 310 308 303
42 48 31 36 33 30 14 32 36 34 49 30 37 39 13 356 360 56 70 38 358 356 354 352 355 358 347 329 325 326 328 325 318 313 319 319 319 322 323 324 320 319 318 316 311 309 304 303 304 305 302 299 295 291
67 15 25 10 16 25 29 16 2 23 52 344 45 34 1 349 57 54 38 344 355 0 352 351 340 340 336 339 333 327 321 321 317 311 312 315 312 312 314 311 310 309 305 301 304 305 302 302 300 298 294 292 289 286
64 20 34 1 12 37 344 40 23 6 3 29 6 322 346 37 52 341 285 339 346 348 347 344 340 334 326 324 324 323 319 316 314 313 309 309 310 308 308 306 296 296 299 310 306 302 300 298 296 293 292 290 289 288
51 354 18 23 7 0 48 58 49 56 41 19 337 345 359 59 21 313 336 349 341 344 344 343 338 332 328 325 319 319 317 316 313 310 305 301 299 298 295 292 295 300 300 302 305 302 298 296 294 292 292 290 290 288
61 27 21 346 30 29 99 47 43 21 302 343 305 28 87 92 257 337 334 339 345 349 349 346 343 339 336 334 331 327 322 316 311 309 307 306 303 303 303 304 304 302 301 299 299 299 298 296 295 294 293 291 289 287
33 355 360 18 47 45 45 65 350 5 349 338 134 241 234 55 2 4 6 8 7 4 1 357 351 351 347 346 343 339 336 332 328 326 318 313 311 311 310 307 305 303 301 299 297 295 292 291 290 290 290 289 289 286
1 2 10 16 61 23 22 16 353 346 6 15 23 58 92 68 34 31 28 22 17 12 4 358 355 354 349 346 344 336 333 334 332 328 326 324 318 312 307 302 299 296 295 294 291 288 289 291 291 291 294 295 295 294
356 354 0 28 70 23 1 5 1 15 25 24 25 343 314 303 349 21 16 12 8 0 358 359 353 349 352 350 348 344 342 331 328 322 318 315 312 309 306 303 301 298 296 295 294 293 292 290 290 290 289 290 291 291
360 12 7 15 21 352 6 359 353 353 3 9 9 7 350 340 342 358 0 357 1 0 354 350 350 350 343 338 337 331 323 323 322 318 315 311 310 308 304 301 300 298 296 296 295 294 293 293 293 293 293 293 293 292
338 353 357 341 334 2 348 347 354 350 320 344 342 359 7 346 330 357 358 353 356 351 352 349 342 338 334 329 326 323 315 312 311 308 305 302 301 300 297 296 294 292 292 292 292 292 291 291 291 292 292 292 293 293
Wind_Speed_850mb
18 22 20 20 21 22 22 20 22 21 16 13 10 9 10 11 12 19 18 15 12 9 15 18 14 15 16 8 14 16 11 7 4 6 5 5 6 12 8 8 15 16 17 8 6 10 28 14 5 20 17 6 12 10
17 16 22 22 17 19 23 22 20 17 19 14 11 10 10 11 11 8 24 13 24 14 13 27 25 28 29 14 26 8 8 8 8 7 2 6 5 4 11 7 4 6 14 15 27 18 6 23 2 12 4 2 7 5
20 17 16 18 14 14 18 20 18 17 18 14 12 13 11 10 9 11 17 22 28 34 22 13 23 26 20 17 20 11 10 10 10 11 6 4 6 4 7 7 8 6 4 7 7 4 7 19 13 8 6 1 1 4
15 14 16 14 19 18 19 20 14 13 17 14 13 13 12 11 12 14 28 28 18 11 8 7 17 22 24 14 15 19 34 34 23 14 6 4 5 4 5 5 4 5 11 9 8 7 3 15 5 14 9 10 13 14
15 13 11 13 14 16 17 19 18 16 18 13 12 12 11 9 10 11 18 25 17 7 8 8 19 17 21 21 22 32 22 20 17 8 5 4 5 6 3 4 3 11 9 8 7 8 10 3 22 8 6 9 10 9
17 18 16 15 15 15 20 18 13 19 21 16 14 14 10 10 12 12 8 12 10 16 11 5 6 9 20 27 34 34 34 27 14 10 2 7 6 4 4 4 6 17 15 13 9 15 10 9 8 7 5 6 8 10
19 19 20 18 16 14 13 8 10 13 13 28 19 16 14 13 11 9 5 10 21 12 8 5 4 6 18 20 14 18 19 16 11 10 5 7 5 6 4 4 4 13 17 10 7 7 6 13 8 19 14 15 16 15
18 16 14 12 7 3 1 9 8 8 17 22 25 18 16 19 18 13 16 16 23 11 10 6 2 3 8 8 7 7 7 7 11 7 7 5 8 5 2 16 8 6 15 13 11 13 11 7 9 19 27 28 28 27
11 11 9 5 2 3 6 6 8 13 18 22 26 24 26 20 10 14 14 19 11 10 6 7 8 5 12 8 7 6 6 6 5 4 1 7 2 4 12 15 14 12 3 6 11 14 10 7 2 1 5 10 13 16
9 5 5 5 2 6 8 9 7 17 21 27 35 13 8 25 23 28 11 4 5 3 5 4 8 5 10 6 4 6 6 4 4 5 7 5 6 13 7 9 0 7 12 11 4 2 1 4 7 11 13 18 20 21
6 3 2 3 7 12 10 13 9 21 26 31 12 9 42 39 12 6 6 6 4 6 3 5 6 7 5 6 5 4 4 2 5 7 8 4 5 4 6 19 17 12 12 13 18 11 8 11 13 13 14 16 19 20
4 5 3 4 10 12 11 10 9 30 26 30 19 50 28 9 8 9 1 4 6 7 1 5 7 9 9 6 7 3 5 4 6 6 5 5 5 7 8 5 8 16 20 23 25 26 24 23 23 22 23 24 24 24
4 1 1 4 11 12 14 7 21 35 50 55 12 9 7 4 11 9 4 5 1 7 13 10 4 7 8 7 10 5 6 5 10 3 6 7 2 8 11 6 4 4 10 17 22 25 26 26 29 29 28 31 32 30
4 2 0 4 9 12 11 16 45 53 44 11 6 6 7 1 4 8 9 9 5 6 24 25 11 7 7 6 4 7 2 5 4 2 11 2 10 10 10 7 5 3 4 4 5 6 8 9 12 14 18 21 23 25
9 7 6 2 6 9 13 1 60 48 11 8 7 5 3 5 13 9 12 10 7 27 23 17 12 8 5 7 5 7 7 5 11 10 2 10 12 7 4 5 5 6 8 9 11 10 9 8 10 13 15 17 20 22
13 10 15 5 9 4 3 30 55 33 10 10 16 9 5 6 7 11 17 15 17 20 17 10 5 8 2 6 6 9 11 10 6 4 10 10 8 7 6 5 5 5 7 8 9 10 10 11 13 16 19 22 24 25
12 11 13 6 9 12 12 43 27 16 12 10 8 22 16 20 12 8 10 11 14 5 3 7 8 11 2 6 5 1 8 4 6 6 13 13 10 8 6 5 4 4 5 7 8 8 8 10 13 16 19 22 24 27
14 9 8 5 9 27 33 17 15 16 18 22 10 13 23 20 11 15 13 12 7 5 2 5 11 7 7 7 3 1 3 4 5 8 11 11 12 12 11 8 7 7 8 10 13 15 18 20 22 23 24 26 28 29
6 2 8 6 15 12 14 19 16 14 16 11 14 18 19 18 30 22 12 12 15 14 8 6 10 4 2 5 4 5 7 9 8 14 12 7 13 16 17 15 14 16 17 19 21 22 23 24 26 28 31 32 32 32
16 17 9 9 7 11 13 16 15 17 11 9 13 14 11 11 13 21 22 14 12 9 21 10 3 5 7 8 9 11 11 13 17 15 6 10 16 16 14 14 15 16 17 18 21 23 25 27 28 29 30 30 30 30
25 21 12 9 22 26 18 13 17 14 11 12 10 10 9 12 14 19 21 23 19 15 8 9 11 12 12 8 7 10 11 12 13 11 15 16 18 18 15 16 15 15 16 19 23 25 26 27 28 27 26 25 26 25
30 17 19 25 19 16 21 25 14 10 8 9 9 12 14 10 15 20 19 27 13 11 10 16 17 13 9 8 10 12 14 13 13 14 17 21 21 14 13 15 15 16 17 19 22 25 25 24 23 22 21 20 19 18
21 17 19 23 13 18 10 15 8 13 8 7 5 8 9 9 13 15 13 11 9 18 21 19 17 15 10 8 10 11 12 13 13 14 16 18 18 18 16 15 15 17 17 21 22 22 21 19 16 15 13 12 12 12
21 17 22 19 28 9 10 16 13 11 10 9 7 6 7 12 15 12 6 5 14 19 22 21 18 12 10 10 11 11 13 14 14 14 14 15 15 14 14 14 14 15 16 15 15 15 15 15 15 14 14 14 15 16
14 30 19 16 19 14 14 10 13 10 7 7 5 7 7 13 5 6 2 7 23 23 22 20 20 18 14 10 12 12 14 15 15 14 15 15 16 16 17 18 18 18 19 17 16 17 19 19 18 17 18 19 20 21
19 29 17 19 15 11 6 7 9 7 6 8 5 13 9 3 8 3 5 22 25 30 29 26 22 16 13 18 18 15 16 19 19 19 17 19 22 21 22 23 21 20 21 21 21 21 21 22 22 22 22 23 24 25
13 11 17 23 12 7 10 8 6 10 9 8 6 11 6 8 5 6 17 20 29 28 24 22 22 22 23 20 19 20 22 23 24 23 22 23 23 22 22 23 21 20 21 23 22 23 23 24 24 26 26 26 27 30
14 23 10 23 12 15 5 7 7 5 5 9 6 8 6 2 2 12 13 23 23 21 21 19 19 20 20 20 19 18 16 17 18 19 18 17 17 18 19 20 22 23 24 24 25 26 26 27 28 30 31 32 30 33
13 31 13 13 6 11 13 5 2 4 12 4 3 1 1 3 7 13 18 20 21 22 21 20 21 22 22 22 22 20 20 20 21 19 19 19 19 19 21 22 23 25 26 26 28 29 30 32 34 36 36 38 37 37
17 33 12 9 7 6 10 12 11 11 11 9 2 2 2 4 10 15 21 24 25 26 25 26 26 25 24 23 20 20 24 22 21 23 25 23 24 24 26 28 28 30 32 32 33 34 37 40 40 43 47 48 47 48
21 21 9 11 6 10 16 19 12 12 9 9 8 4 5 7 4 16 21 29 35 30 28 24 23 28 28 29 32 30 24 26 27 29 32 33 33 33 35 37 38 40 41 42 43 44 45 47 48 50 52 53 52 53
23 18 12 8 4 14 11 21 11 8 9 8 9 12 9 7 8 13 28 28 38 32 25 23 26 27 28 28 33 34 32 31 32 36 38 40 39 38 39 40 41 43 46 47 47 48 49 52 54 53 55 55 55 55
12 14 10 11 8 8 15 24 7 10 3 5 5 11 10 6 5 17 31 31 45 36 26 29 32 35 36 37 41 41 39 43 47 48 49 51 53 53 54 54 52 52 55 57 57 57 57 58 61 62 62 64 65 65
Wind_Direction_850mb
161 166 149 138 134 133 136 152 175 186 186 183 155 144 141 138 113 166 162 82 130 95 42 68 51 88 101 120 152 163 103 21 33 100 131 174 128 204 106 158 165 158 159 173 121 231 259 170 98 170 225 77 221 195
118 162 166 149 137 140 131 131 133 144 159 179 175 153 142 133 134 145 176 111 107 110 101 96 73 81 88 78 124 111 83 102 115 104 195 99 118 141 148 195 291 159 177 173 187 209 222 187 235 213 354 251 172 161
63 97 153 170 180 172 157 138 135 137 143 143 142 158 155 135 125 159 153 159 102 107 95 84 75 87 97 79 111 109 83 118 102 114 134 125 145 129 156 232 103 276 197 183 115 262 168 200 222 200 231 303 239 255
122 88 89 131 158 145 167 177 150 147 158 145 142 130 152 135 121 139 147 149 124 109 102 55 100 89 98 90 109 82 111 102 98 101 106 118 124 220 188 142 158 184 136 162 278 297 45 65 337 255 267 342 330 293
153 119 118 97 124 139 174 177 180 172 165 170 162 142 132 152 128 125 142 157 137 87 117 93 97 91 90 108 115 134 136 118 93 66 44 93 110 120 348 74 260 189 171 177 213 157 105 48 38 13 272 294 337 332
138 148 140 124 121 110 118 126 161 204 204 178 174 158 154 127 123 119 103 175 127 110 103 88 87 78 117 110 117 128 138 126 106 106 108 109 135 62 100 205 275 197 182 143 161 169 128 121 79 19 335 308 326 351
84 110 126 122 120 131 154 157 169 191 189 194 176 178 169 144 137 62 70 147 154 90 86 91 19 84 128 129 95 93 105 113 108 105 79 110 103 112 82 176 275 184 186 171 143 171 205 206 201 194 208 237 258 263
96 90 82 75 86 81 160 206 199 180 194 188 181 170 172 154 135 94 63 140 146 81 69 98 15 81 120 69 73 82 79 81 47 88 111 114 112 79 235 252 243 121 164 187 200 219 239 273 266 270 270 266 258 258
114 104 97 119 145 281 260 201 189 194 185 175 168 168 154 154 120 121 116 132 135 78 98 90 131 181 133 87 89 73 70 51 27 72 13 131 345 204 221 232 222 206 234 284 261 244 234 231 265 355 328 350 340 339
136 124 35 53 60 301 283 240 235 196 167 168 165 141 109 142 146 138 115 72 70 52 84 100 126 120 139 109 87 101 56 112 156 247 141 93 241 250 193 185 187 277 279 284 242 207 202 286 19 2 356 350 342 336
155 181 76 27 34 351 308 224 247 176 168 164 171 97 131 124 117 67 69 79 9 11 24 91 117 123 126 108 133 93 144 75 101 256 134 298 268 230 284 232 232 237 244 249 247 267 284 275 288 295 296 309 318 318
207 235 287 317 337 331 322 290 200 181 165 164 129 128 115 97 85 89 348 359 58 214 147 120 102 103 111 113 93 76 120 71 193 171 117 268 249 14 46 136 218 240 238 239 246 259 272 281 287 294 294 297 301 305
95 99 323 311 325 308 311 281 186 178 143 140 118 88 114 25 56 109 144 312 73 199 179 154 74 95 97 93 74 86 89 200 123 124 221 222 125 40 51 114 150 218 231 237 245 257 268 280 286 290 292 294 294 293
109 118 220 330 297 312 315 213 173 145 133 91 95 80 122 350 220 179 178 181 190 180 140 117 76 90 62 64 121 93 289 91 86 185 235 277 8 18 42 59 178 244 261 259 262 266 288 304 309 309 304 301 298 293
149 150 176 246 332 299 303 148 154 151 94 100 111 125 142 129 63 84 98 108 60 134 138 97 68 78 54 78 63 94 48 229 202 223 202 7 5 360 31 69 91 111 113 108 105 96 78 53 30 13 357 343 331 321
126 113 98 42 352 351 280 134 124 117 71 58 50 74 34 84 23 43 64 81 109 116 107 85 97 58 316 131 89 210 138 217 245 4 339 341 343 2 9 41 62 72 75 77 71 66 54 35 17 5 354 348 340 332
107 80 66 35 356 37 119 125 110 70 65 55 36 52 58 65 73 38 52 68 121 105 109 101 78 202 86 54 342 290 202 251 312 358 355 348 347 359 356 36 46 37 25 25 14 1 355 353 347 341 340 339 337 334
85 85 41 11 66 89 104 56 72 70 62 45 66 22 50 56 62 52 54 77 112 70 77 172 125 75 150 159 229 314 352 333 350 7 7 4 345 342 340 345 340 338 339 333 323 325 329 330 328 328 326 325 326 328
152 124 69 53 56 46 53 39 45 88 65 68 61 50 56 61 53 47 48 71 87 85 105 40 66 69 80 17 3 344 345 351 315 291 307 347 5 345 342 337 324 322 326 326 323 319 317 317 320 323 324 323 324 323
157 127 97 68 37 72 70 42 47 75 78 63 50 42 53 48 43 45 50 64 75 51 43 38 58 349 328 337 320 313 316 323 335 326 294 299 324 336 332 327 316 311 314 316 313 313 312 312 311 312 312 313 315 314
122 117 71 88 58 67 76 53 59 60 73 71 55 46 59 46 36 32 23 22 56 41 50 42 5 353 347 348 340 333 327 318 313 304 299 298 307 313 315 310 310 314 318 319 314 311 309 309 308 309 309 310 312 311
108 79 48 46 62 67 64 39 71 78 71 70 48 34 40 30 19 11 7 47 59 32 10 352 349 348 344 331 330 325 327 322 315 308 305 307 313 310 309 312 311 312 314 312 310 308 307 304 304 306 307 308 308 305
84 52 50 36 71 49 39 30 62 33 66 19 50 48 23 26 13 2 68 55 59 7 1 355 351 345 341 340 333 328 328 325 318 311 311 308 305 306 309 316 326 327 322 317 312 307 301 298 299 305 310 310 308 303
42 48 31 36 33 30 14 32 36 34 49 30 37 39 13 356 360 56 70 38 358 356 354 352 355 358 347 329 325 326 328 325 318 313 319 319 319 322 323 324 320 319 318 316 311 309 304 303 304 305 302 299 295 291
67 15 25 10 16 25 29 16 2 23 52 344 45 34 1 349 57 54 38 344 355 0 352 351 340 340 336 339 333 327 321 321 317 311 312 315 312 312 314 311 310 309 305 301 304 305 302 302 300 298 294 292 289 286
64 20 34 1 12 37 344 40 23 6 3 29 6 322 346 37 52 341 285 339 346 348 347 344 340 334 326 324 324 323 319 316 314 313 309 309 310 308 308 306 296 296 299 310 306 302 300 298 296 293 292 290 289 288
51 354 18 23 7 0 48 58 49 56 41 19 337 345 359 59 21 313 336 349 341 344 344 343 338 332 328 325 319 319 317 316 313 310 305 301 299 298 295 292 295 300 300 302 305 302 298 296 294 292 292 290 290 288
61 27 21 346 30 29 99 47 43 21 302 343 305 28 87 92 257 337 334 339 345 349 349 346 343 339 336 334 331 327 322 316 311 309 307 306 303 303 303 304 304 302 301 299 299 299 298 296 295 294 293 291 289 287
33 355 360 18 47 45 45 65 350 5 349 338 134 241 234 55 2 4 6 8 7 4 1 357 351 351 347 346 343 339 336 332 328 326 318 313 311 311 310 307 305 303 301 299 297 295 292 291 290 290 290 289 289 286
1 2 10 16 61 23 22 16 353 346 6 15 23 58 92 68 34 31 28 22 17 12 4 358 355 354 349 346 344 336 333 334 332 328 326 324 318 312 307 302 299 296 295 294 291 288 289 291 291 291 294 295 295 294
356 354 0 28 70 23 1 5 1 15 25 24 25 343 314 303 349 21 16 12 8 0 358 359 353 349 352 350 348 344 342 331 328 322 318 315 312 309 306 303 301 298 296 295 294 293 292 290 290 290 289 290 291 291
360 12 7 15 21 352 6 359 353 353 3 9 9 7 350 340 342 358 0 357 1 0 354 350 350 350 343 338 337 331 323 323 322 318 315 311 310 308 304 301 300 298 296 296 295 294 293 293 293 293 293 293 293 292
338 353 357 341 334 2 348 347 354 350 320 344 342 359 7 346 330 357 358 353 356 351 352 349 342 338 334 329 326 323 315 312 311 308 305 302 301 300 297 296 294 292 292 292 292 292 291 291 291 292 292 292 293 293